Location: MAC-Johnson Site
(33.6264°N, 81.2093°W)
Time: 13:02:34
(UTC-04:00)

Tiangong - Visible Passes

Search period start: 08 September 2024 00:00
Search period end: 18 September 2024 00:00
Orbit: 376 x 378 km, 41.5° (Epoch: 08 September)

Date Brightness Start Highest point End Pass type
(mag) Time Alt. Az. Time Alt. Az. Time Alt. Az.
08 Sep 0.5 04:57:48 19° NE 04:57:48 19° NE 04:59:27 10° ENE visible
08 Sep -2.1 06:30:46 10° WNW 06:33:54 78° NNE 06:37:00 10° ESE visible
09 Sep -1.1 05:31:10 37° NNW 05:31:46 42° NNE 05:34:44 10° E visible
10 Sep -2.1 06:04:33 23° WNW 06:06:13 58° SSW 06:09:17 10° SE visible
11 Sep 0.3 05:05:54 20° ESE 05:05:54 20° ESE 05:07:00 10° ESE visible
11 Sep -0.2 06:38:22 10° WSW 06:40:16 15° SW 06:42:11 10° S visible
12 Sep -0.3 05:39:24 21° SSE 05:39:24 21° SSE 05:40:46 10° SSE visible
15 Sep -1.0 20:33:14 10° SSW 20:35:52 26° SE 20:35:58 26° SE visible
16 Sep -1.4 21:06:09 10° WSW 21:08:32 50° WSW 21:08:32 50° WSW visible
17 Sep -1.8 20:03:06 10° SW 20:06:05 45° SSE 20:08:46 12° ENE visible
17 Sep 0.9 21:39:56 10° W 21:40:47 16° WNW 21:40:47 16° WNW visible
